Temp
45 44 44 43 43 42 41 42 43 43 43 44 44 44 44 44 44 44 43 43 42 43
44 43 43 43 43 42 42 43 42 42 42 43 43 43 43 42 41 42 41 40 41 40
44 44 43 43 41 41 41 41 41 41 42 41 41 42 42 41 41 40 39 40 39 38
43 44 43 42 42 41 41 42 41 42 41 40 39 40 41 40 40 38 38 38 37 36
45 45 44 42 42 42 42 42 42 42 41 39 37 38 38 39 40 38 37 37 36 35
44 43 42 42 42 42 42 42 42 41 39 37 36 36 37 40 39 38 37 37 35 34
42 42 41 42 41 41 41 40 40 39 37 36 34 35 36 39 38 37 37 36 37 34
41 41 40 39 39 39 38 38 39 38 35 34 33 34 33 37 35 34 33 33 34 33
39 39 37 37 36 36 35 34 34 34 33 30 33 32 34 36 35 33 30 27 28 31
37 35 34 35 34 32 31 31 30 30 31 28 29 31 33 35 32 30 28 25 24 27
35 34 32 31 30 30 30 28 27 27 27 27 29 31 31 32 30 30 28 26 24 23
32 30 30 26 28 29 30 28 27 27 26 24 25 31 30 27 27 26 25 25 24 24
31 27 24 28 26 29 30 28 30 27 26 28 23 30 30 26 23 23 23 22 22 28
33 31 31 29 29 28 28 28 29 28 25 24 24 24 30 29 22 22 22 21 21 22
MSLP
1021.86 1021.83 1021.86 1021.74 1021.62 1021.38 1021.17 1020.94 1021.01 1020.62 1020.05 1019.51 1019.06 1018.61 1018.24 1017.95 1017.75 1017.39 1017.08 1016.69 1016.65 1016.18
1022.27 1022.17 1022.22 1022.16 1022.04 1021.83 1021.65 1021.40 1021.29 1020.93 1020.42 1019.65 1019.10 1018.84 1018.59 1018.45 1018.14 1017.77 1017.19 1017.28 1017.18 1017.12
1022.34 1022.48 1022.58 1022.55 1022.41 1022.20 1022.14 1021.90 1021.50 1021.09 1020.70 1020.08 1019.56 1018.85 1018.82 1018.73 1018.26 1018.24 1018.22 1018.07 1017.99 1017.61
1022.51 1022.52 1022.83 1022.89 1022.70 1022.55 1022.38 1022.07 1021.69 1021.34 1021.07 1020.61 1020.02 1019.44 1019.34 1019.34 1019.54 1019.04 1018.80 1018.77 1018.28 1017.95
1022.53 1022.35 1022.69 1022.88 1022.76 1022.47 1022.24 1022.06 1021.67 1021.40 1021.39 1021.24 1020.63 1020.37 1020.26 1020.05 1019.48 1019.43 1019.19 1018.75 1018.85 1018.64
1022.80 1022.68 1022.95 1023.10 1023.00 1022.82 1022.54 1022.41 1022.09 1022.14 1022.02 1022.07 1021.66 1021.25 1021.22 1020.53 1020.31 1020.08 1019.90 1019.64 1019.68 1019.62
1023.15 1023.21 1023.41 1023.56 1023.51 1023.38 1023.14 1023.12 1022.86 1022.94 1023.08 1022.90 1022.90 1022.45 1022.05 1021.07 1021.32 1020.85 1020.87 1020.49 1020.26 1020.44
1023.57 1023.84 1023.95 1024.12 1024.14 1024.14 1024.07 1023.96 1023.62 1023.73 1024.08 1024.06 1023.98 1023.62 1022.92 1021.97 1021.78 1021.59 1021.61 1021.42 1021.17 1020.95
1024.16 1024.48 1024.64 1024.76 1024.90 1025.00 1024.97 1025.06 1024.99 1024.88 1025.06 1025.13 1024.75 1024.34 1023.53 1022.43 1022.34 1022.40 1022.61 1022.65 1022.40 1021.71
1024.85 1025.14 1025.39 1025.48 1025.63 1025.75 1025.80 1025.90 1025.94 1026.01 1025.89 1025.90 1025.48 1024.85 1024.07 1023.09 1023.13 1023.33 1023.57 1023.57 1023.32 1022.77
1025.23 1025.53 1025.89 1026.10 1026.18 1026.21 1026.26 1026.38 1026.51 1026.72 1026.73 1026.50 1026.06 1025.48 1024.79 1024.22 1024.11 1023.98 1023.93 1024.05 1024.04 1023.58
1026.01 1026.25 1026.49 1026.69 1026.69 1026.58 1026.52 1026.69 1026.97 1027.16 1027.32 1027.15 1026.86 1026.27 1025.90 1025.58 1025.16 1024.88 1024.82 1024.94 1024.68 1024.31
1026.44 1026.67 1026.84 1026.95 1026.94 1026.83 1026.80 1026.93 1027.15 1027.48 1027.62 1027.72 1027.70 1026.89 1026.46 1026.45 1026.35 1025.86 1025.78 1025.61 1025.64 1024.75
1026.49 1026.75 1026.95 1027.08 1026.99 1026.94 1026.99 1027.10 1027.27 1027.65 1028.06 1028.30 1028.23 1028.00 1027.08 1026.84 1026.89 1026.57 1026.49 1026.30 1025.93 1025.42
Wind_Speed
8 6 6 7 6 5 6 6 9 9 8 8 8 8 8 6 7 7 7 10 9 7
6 7 6 8 7 6 7 8 9 9 9 9 9 9 8 6 7 8 9 9 10 8
6 7 6 6 7 8 7 8 8 9 10 10 10 11 10 8 10 10 7 7 9 9
5 6 6 6 6 6 7 7 8 8 9 11 12 13 10 9 7 8 9 8 10 12
5 6 6 5 6 4 5 6 8 10 11 12 13 13 13 10 11 11 11 11 12 14
6 7 7 7 7 8 9 10 11 12 13 14 14 14 13 10 11 11 12 12 12 14
6 7 7 7 8 8 10 10 10 12 14 13 14 14 13 11 11 12 12 12 11 14
7 7 8 7 8 9 10 11 11 12 13 14 13 11 13 9 9 11 13 14 13 14
8 8 8 8 9 9 10 11 12 12 13 14 11 22 22 13 10 12 13 13 14 13
7 8 8 8 8 9 10 10 10 11 11 13 14 26 24 16 9 10 11 13 13 13
7 7 8 7 7 6 6 7 8 9 11 11 13 26 25 22 9 8 11 12 14 14
7 7 7 5 5 5 6 5 6 6 8 11 11 25 25 17 11 10 11 12 12 13
7 5 4 4 3 4 5 4 5 7 8 17 11 23 24 18 8 10 8 9 10 21
8 6 6 4 3 3 3 3 5 7 9 10 13 14 24 23 9 8 7 7 8 7
Wind_Direction
28 18 25 19 12 11 12 6 2 355 349 357 353 355 353 1 4 360 7 3 1 339
34 38 28 34 16 23 18 14 7 1 357 9 11 14 12 13 12 20 14 13 4 6
42 40 36 40 29 30 25 16 14 7 6 19 15 18 20 13 18 20 20 23 12 6
53 49 45 39 38 32 31 17 12 17 24 26 17 15 17 18 22 25 26 23 21 12
54 54 55 51 48 25 49 29 17 22 32 27 23 16 1 19 22 26 22 25 27 16
47 52 43 33 36 32 33 20 32 28 32 28 24 14 358 24 22 23 25 19 36 18
50 54 50 41 41 36 37 32 31 40 29 39 19 9 357 23 25 25 27 18 31 26
69 54 52 44 43 42 41 29 28 44 40 23 27 9 358 2 40 29 30 18 14 31
62 60 52 48 51 47 50 43 31 28 47 31 24 13 8 20 31 35 39 23 13 20
76 73 55 50 55 56 51 54 46 33 35 34 24 20 13 44 32 44 47 38 21 16
81 77 77 65 53 71 71 61 55 48 37 34 25 28 20 17 37 43 43 45 30 18
80 73 78 70 63 55 61 71 72 58 51 40 24 33 32 23 12 29 40 32 20 24
103 85 76 88 83 67 75 59 83 74 54 50 29 29 35 38 14 26 34 28 17 18
111 114 114 100 79 77 69 73 69 84 68 48 40 23 31 33 25 20 25 22 16 7